Weather History for Roosevelt Roads, PR

Change the Weather History Date:

Tuesday, January 1, 2013

  Actual Average Record
Temperature  
Mean Temperature 80 °F -  
Max Temperature 82 °F 81 °F 84 °F (1998)
Min Temperature 77 °F 70 °F 73 °F (1997)
Cooling Degree Days 14    
Growing Degree Days 30 (Base 50)    
Moisture  
Dew Point 69 °F    
Average Humidity 72    
Maximum Humidity 82    
Minimum Humidity 65    
Precipitation  
Precipitation 0.00 in - - ()
Sea Level Pressure  
Sea Level Pressure 30.04 in    
Wind  
Wind Speed 9 mph (East)    
Max Wind Speed 13 mph    
Max Gust Speed 18 mph    
Visibility 10 miles    
Events      
Averages and records for this station are not official NWS values.
T = Trace of Precipitation, MM = Missing Value Source: NWS Daily Summary

Daily Weather History Graph

Daily Weather History Graph

Search for Another Location

Airport:

Trip Planner

Search our weather history database for the weather conditions in past years. The results will help you decide how hot, cold, wet, or windy it might be!

Date:

Astronomy

Jan. 01, 2013 Rise Set
Actual Time 6:54 AM AST 5:58 PM AST
Civil Twilight 6:30 AM AST 6:21 PM AST
Nautical Twilight 6:03 AM AST 6:48 PM AST
Astronomical Twilight 5:36 AM AST 7:15 PM AST
Moon 9:46 PM AST (1/1) 9:39 AM AST (1/1)
Length of Visible Light 11h 51m
Length of Day
11h 03m
Waning Gibbous, 84% of the Moon is Illuminated
Jan 1
Waning Gibbous
Jan 4
Last Quarter
Jan 11
New
Jan 18
First Quarter
Jan 27
Full

Hourly Weather History & Observations

Time (AST) Temp. Heat Index Dew Point Humidity Pressure Visibility Wind Dir Wind Speed Gust Speed Precip Events Conditions
12:53 AM 78.1 °F - 71.1 °F 79% 30.04 in 10.0 mi ENE 11.5 mph 18.4 mph N/A   Mostly Cloudy
1:53 AM 78.1 °F - 70.0 °F 76% 30.03 in 10.0 mi ENE 10.4 mph - N/A   Scattered Clouds
2:53 AM 78.1 °F - 69.1 °F 74% 30.01 in 10.0 mi ENE 9.2 mph 17.3 mph N/A   Partly Cloudy
3:53 AM 77.0 °F - 71.1 °F 82% 30.01 in 10.0 mi East 8.1 mph - N/A   Scattered Clouds
4:23 AM 78.8 °F - 69.8 °F 74% 30.01 in 10.0 mi ENE 9.2 mph - N/A   Mostly Cloudy
4:53 AM 78.1 °F - 70.0 °F 76% 30.02 in 10.0 mi East 9.2 mph - N/A   Mostly Cloudy
5:05 AM 78.8 °F - 69.8 °F 74% 30.02 in 10.0 mi East 10.4 mph - N/A   Partly Cloudy
5:53 AM 77.0 °F - 70.0 °F 79% 30.03 in 10.0 mi East 10.4 mph - N/A   Partly Cloudy
6:53 AM 77.0 °F - 70.0 °F 79% 30.04 in 10.0 mi East 4.6 mph - N/A   Mostly Cloudy
7:53 AM 79.0 °F - 70.0 °F 74% 30.06 in 10.0 mi East 6.9 mph - N/A   Scattered Clouds
8:53 AM 78.1 °F - 71.1 °F 79% 30.09 in 10.0 mi North 4.6 mph - N/A   Overcast
9:53 AM 82.0 °F 86.3 °F 71.1 °F 69% 30.10 in 10.0 mi East 9.2 mph - N/A   Overcast
10:53 AM 80.1 °F 83.2 °F 70.0 °F 71% 30.09 in 10.0 mi ESE 6.9 mph - N/A   Overcast
11:53 AM 81.0 °F 84.4 °F 70.0 °F 69% 30.08 in 10.0 mi East 8.1 mph - 0.00 in   Mostly Cloudy
12:53 PM 81.0 °F 84.4 °F 70.0 °F 69% 30.04 in 10.0 mi East 9.2 mph - N/A   Overcast
1:53 PM 82.9 °F 87.0 °F 70.0 °F 65% 30.03 in 10.0 mi ESE 12.7 mph - N/A   Mostly Cloudy
2:53 PM 82.9 °F 87.0 °F 70.0 °F 65% 30.01 in 10.0 mi ESE 11.5 mph - N/A   Mostly Cloudy
3:53 PM 82.0 °F 85.5 °F 69.1 °F 65% 30.01 in 10.0 mi ENE 10.4 mph 16.1 mph N/A   Overcast
4:53 PM 81.0 °F 83.8 °F 68.0 °F 65% 30.01 in 10.0 mi ESE 12.7 mph - N/A   Scattered Clouds
5:53 PM 79.0 °F - 68.0 °F 69% 30.02 in 10.0 mi ESE 6.9 mph - N/A   Clear
6:53 PM 78.1 °F - 68.0 °F 71% 30.03 in 10.0 mi East 5.8 mph - N/A   Clear
7:53 PM 78.1 °F - 68.0 °F 71% 30.04 in 10.0 mi East 5.8 mph - N/A   Partly Cloudy
8:53 PM 78.1 °F - 68.0 °F 71% 30.05 in 10.0 mi East 8.1 mph - N/A   Partly Cloudy
9:53 PM 77.0 °F - 66.9 °F 71% 30.06 in 10.0 mi ENE 5.8 mph - N/A   Clear
10:53 PM 78.1 °F - 66.9 °F 68% 30.05 in 10.0 mi East 6.9 mph - N/A   Clear
11:53 PM 78.1 °F - 68.0 °F 71% 30.04 in 10.0 mi East 9.2 mph - N/A   Clear